Location: Arpaise
(41.0333°N, 14.7333°E)
Time: 07:51:01
(UTC+00:00)

CZ-4C R/B - Pass Details

Date: 05 July 2020
Orbit: 632 x 1370 km, 63.4° (Epoch: 06 August)

Event Time Altitude Azimuth Distance (km) Brightness Sun altitude
Rises 23:27:04 0° 328° (NNW) 3,825 6.4 -26.1°
Reaches altitude 10° 23:29:38 10° 333° (NNW) 2,970 5.7 -26.1°
Maximum altitude 23:36:42 52° 49° (NE) 1,505 3.6 -25.9°
Drops below altitude 10° 23:44:45 10° 124° (SE) 3,374 5.1 -25.7°
Enters shadow 23:45:18 - 125° (SE) 3,550 5.2 -25.7°
